Location: Complexul Astronomic Baia Mare
(47.6577°N, 23.5639°E)
Time: 20:01:37
(UTC+03:00)

ISS - Pass Details

Date: 19 March 2017
Orbit: 399 x 409 km, 51.6° (Epoch: 27 March)

Event Time Altitude Azimuth Distance (km) Brightness Sun altitude
Exits shadow 05:44:03 10° 287° (WNW) 1,487 -1.5 -8.7°
Reaches altitude 10° 05:44:05 10° 287° (WNW) 1,476 -1.5 -8.7°
Maximum altitude 05:47:17 48° 212° (SSW) 540 -3.5 -8.1°
Drops below altitude 10° 05:50:29 10° 136° (SE) 1,470 -0.5 -7.6°
Sets 05:52:36 0° 131° (SE) 2,328 0.7 -7.2°
